RWD606 HKJK-HRYR

Flight info

Callsign RWD606
Flight time 1h 1m
Altitude 38000
Route APLOG2B APLOG UL442 BOSAD BOSAD2A
Aircraft B738/M-SDE2E3FGHIRWXY/LB1

Departure

Time 2026-04-26 13:31
Airport Jomo Kenyatta International Airport (HKJK)

Arrival

Time 2026-04-26 14:33
Airport Kigali International Airport (HRYR)
Time Latitude Longitude Altitude Speed Heading
2026-04-26 12:46 -1.32974 36.92722 5323 ft 0 kts 340°
2026-04-26 13:17 -1.32973 36.92722 5323 ft 0 kts 340°
2026-04-26 13:17 -1.32957 36.92722 5320 ft 5 kts
2026-04-26 13:18 -1.32848 36.92700 5319 ft 12 kts 322°
2026-04-26 13:18 -1.32804 36.92645 5316 ft 7 kts 301°
2026-04-26 13:18 -1.32795 36.92627 5320 ft 0 kts 296°
2026-04-26 13:19 -1.32794 36.92625 5320 ft 2 kts 296°
2026-04-26 13:19 -1.32790 36.92616 5316 ft 1 kts 295°
2026-04-26 13:19 -1.32789 36.92614 5317 ft 0 kts 294°
2026-04-26 13:20 -1.32788 36.92613 5317 ft 0 kts 293°
2026-04-26 13:20 -1.32788 36.92612 5317 ft 0 kts 293°
2026-04-26 13:20 -1.32787 36.92609 5318 ft 0 kts 293°
2026-04-26 13:21 -1.32786 36.92608 5318 ft 1 kts 293°
2026-04-26 13:21 -1.32785 36.92606 5319 ft 0 kts 293°
2026-04-26 13:21 -1.32782 36.92596 5333 ft 3 kts 289°
2026-04-26 13:22 -1.32772 36.92562 5319 ft 6 kts 283°
2026-04-26 13:22 -1.32765 36.92518 5315 ft 6 kts 273°
2026-04-26 13:22 -1.32767 36.92474 5313 ft 6 kts 264°
2026-04-26 13:22 -1.32768 36.92432 5323 ft 6 kts 279°
2026-04-26 13:23 -1.32745 36.92394 5323 ft 7 kts 316°
2026-04-26 13:23 -1.32698 36.92355 5319 ft 10 kts 312°
2026-04-26 13:23 -1.32697 36.92281 5319 ft 13 kts 241°
2026-04-26 13:23 -1.32752 36.92203 5321 ft 14 kts 236°
2026-04-26 13:24 -1.32814 36.92118 5327 ft 16 kts 233°
2026-04-26 13:24 -1.32840 36.92015 5334 ft 16 kts 278°
2026-04-26 13:24 -1.32825 36.91922 5331 ft 11 kts 279°
2026-04-26 13:24 -1.32826 36.91850 5335 ft 10 kts 249°
2026-04-26 13:25 -1.32861 36.91789 5336 ft 10 kts 239°
2026-04-26 13:25 -1.32860 36.91725 5337 ft 10 kts 306°
2026-04-26 13:25 -1.32846 36.91711 5339 ft 0 kts 323°
2026-04-26 13:27 -1.32840 36.91707 5338 ft 3 kts 323°
2026-04-26 13:28 -1.32806 36.91683 5336 ft 9 kts 324°
2026-04-26 13:28 -1.32766 36.91662 5336 ft 10 kts 355°
2026-04-26 13:28 -1.32726 36.91684 5336 ft 0 kts 50°
2026-04-26 13:29 -1.32726 36.91685 5336 ft 0 kts 50°
2026-04-26 13:29 -1.32725 36.91686 5336 ft 1 kts 51°
2026-04-26 13:30 -1.32670 36.91758 5331 ft 34 kts 54°
2026-04-26 13:30 -1.32398 36.92132 5320 ft 98 kts 54°
2026-04-26 13:30 -1.31887 36.92833 5310 ft 150 kts 53°
2026-04-26 13:30 -1.31186 36.93801 5385 ft 188 kts 55°
2026-04-26 13:31 -1.30375 36.94886 5926 ft 197 kts 56°
2026-04-26 13:31 -1.29568 36.95973 6650 ft 198 kts 56°
2026-04-26 13:31 -1.28744 36.97087 7184 ft 204 kts 56°
2026-04-26 13:31 -1.27848 36.98284 7319 ft 227 kts 56°
2026-04-26 13:32 -1.26859 36.99588 7568 ft 242 kts 54°
2026-04-26 13:32 -1.25803 37.00984 7796 ft 260 kts 54°
2026-04-26 13:32 -1.24667 37.02496 8021 ft 281 kts 55°
2026-04-26 13:32 -1.23481 37.04078 8607 ft 287 kts 54°
2026-04-26 13:33 -1.22079 37.05505 9239 ft 294 kts 30°
2026-04-26 13:33 -1.20111 37.06048 9952 ft 298 kts
2026-04-26 13:33 -1.18057 37.05651 10471 ft 309 kts 337°
2026-04-26 13:33 -1.16189 37.04460 10643 ft 330 kts 316°
2026-04-26 13:34 -1.14755 37.02589 10811 ft 349 kts 297°
2026-04-26 13:34 -1.13966 37.00239 11005 ft 365 kts 278°
2026-04-26 13:34 -1.13955 36.97690 11488 ft 369 kts 262°
2026-04-26 13:34 -1.14215 36.96016 11874 ft 371 kts 259°
2026-04-26 13:35 -1.14943 36.92598 12568 ft 376 kts 257°
2026-04-26 13:35 -1.15512 36.90065 13117 ft 380 kts 257°
2026-04-26 13:35 -1.16071 36.87465 13608 ft 386 kts 258°
2026-04-26 13:35 -1.16604 36.84825 14188 ft 389 kts 259°
2026-04-26 13:36 -1.17117 36.82142 14673 ft 394 kts 259°
2026-04-26 13:36 -1.17613 36.79445 15251 ft 394 kts 260°
2026-04-26 13:36 -1.18094 36.76754 15799 ft 395 kts 260°
2026-04-26 13:36 -1.18575 36.74026 16289 ft 399 kts 260°
2026-04-26 13:37 -1.19053 36.71289 16758 ft 402 kts 260°
2026-04-26 13:37 -1.19534 36.68530 17206 ft 405 kts 260°
2026-04-26 13:37 -1.20019 36.65741 17638 ft 409 kts 260°
2026-04-26 13:37 -1.20510 36.62918 17999 ft 414 kts 260°
2026-04-26 13:38 -1.21006 36.60066 18428 ft 418 kts 260°
2026-04-26 13:38 -1.21505 36.57203 18868 ft 419 kts 260°
2026-04-26 13:38 -1.22003 36.54337 19084 ft 418 kts 260°
2026-04-26 13:38 -1.22501 36.51478 19103 ft 418 kts 260°
2026-04-26 13:39 -1.23002 36.48603 19122 ft 422 kts 260°
2026-04-26 13:39 -1.23499 36.45746 19116 ft 422 kts 260°
2026-04-26 13:39 -1.24001 36.42864 19108 ft 420 kts 260°
2026-04-26 13:39 -1.24503 36.39984 19119 ft 421 kts 260°
2026-04-26 13:40 -1.25009 36.37076 19366 ft 425 kts 260°
2026-04-26 13:40 -1.25548 36.34167 19777 ft 425 kts 257°
2026-04-26 13:40 -1.26249 36.31282 20159 ft 427 kts 256°
2026-04-26 13:40 -1.26973 36.28395 20472 ft 430 kts 256°
2026-04-26 13:41 -1.27650 36.25468 20817 ft 433 kts 258°
2026-04-26 13:41 -1.28265 36.22519 21154 ft 435 kts 259°
2026-04-26 13:41 -1.28823 36.19577 21438 ft 438 kts 260°
2026-04-26 13:41 -1.29357 36.16569 21765 ft 441 kts 261°
2026-04-26 13:42 -1.29871 36.13548 22111 ft 442 kts 261°
2026-04-26 13:42 -1.30379 36.10509 22437 ft 444 kts 261°
2026-04-26 13:42 -1.30889 36.07462 22719 ft 447 kts 261°
2026-04-26 13:42 -1.31403 36.04391 23003 ft 449 kts 261°
2026-04-26 13:43 -1.31919 36.01309 23319 ft 451 kts 261°
2026-04-26 13:43 -1.32438 35.98212 23620 ft 452 kts 261°
2026-04-26 13:43 -1.32959 35.95096 23848 ft 455 kts 261°
2026-04-26 13:43 -1.33484 35.91968 24084 ft 456 kts 261°
2026-04-26 13:44 -1.34008 35.88839 24350 ft 457 kts 261°
2026-04-26 13:44 -1.34534 35.85700 24594 ft 458 kts 261°
2026-04-26 13:44 -1.35056 35.82591 24815 ft 460 kts 261°
2026-04-26 13:44 -1.35585 35.79435 25057 ft 461 kts 261°
2026-04-26 13:45 -1.36115 35.76272 25285 ft 462 kts 261°
2026-04-26 13:45 -1.36648 35.73093 25413 ft 467 kts 261°
2026-04-26 13:45 -1.37184 35.69891 25666 ft 467 kts 261°
2026-04-26 13:45 -1.37718 35.66708 26000 ft 465 kts 261°
2026-04-26 13:46 -1.38255 35.63505 26168 ft 469 kts 261°
2026-04-26 13:46 -1.38794 35.60286 26402 ft 469 kts 261°
2026-04-26 13:46 -1.39333 35.57070 26666 ft 469 kts 261°
2026-04-26 13:46 -1.39875 35.53829 26853 ft 471 kts 261°
2026-04-26 13:47 -1.40412 35.50623 27012 ft 473 kts 261°
2026-04-26 13:47 -1.40953 35.47396 27459 ft 468 kts 261°
2026-04-26 13:47 -1.41491 35.44188 27649 ft 470 kts 261°
2026-04-26 13:47 -1.42033 35.40951 27721 ft 474 kts 261°
2026-04-26 13:48 -1.42579 35.37690 27861 ft 477 kts 261°
2026-04-26 13:48 -1.43127 35.34418 28026 ft 478 kts 261°
2026-04-26 13:48 -1.43676 35.31139 28189 ft 479 kts 261°
2026-04-26 13:48 -1.44228 35.27840 28346 ft 481 kts 261°
2026-04-26 13:49 -1.44779 35.24545 28584 ft 483 kts 261°
2026-04-26 13:49 -1.45333 35.21234 28866 ft 483 kts 261°
2026-04-26 13:49 -1.45889 35.17910 29008 ft 484 kts 261°
2026-04-26 13:49 -1.46445 35.14589 29204 ft 485 kts 261°
2026-04-26 13:50 -1.47002 35.11260 29388 ft 485 kts 261°
2026-04-26 13:50 -1.47558 35.07933 29568 ft 485 kts 261°
2026-04-26 13:50 -1.48105 35.04660 29903 ft 482 kts 261°
2026-04-26 13:50 -1.48656 35.01361 30152 ft 481 kts 261°
2026-04-26 13:51 -1.49205 34.98071 30438 ft 478 kts 261°
2026-04-26 13:51 -1.49752 34.94800 30853 ft 474 kts 261°
2026-04-26 13:51 -1.50280 34.91570 31291 ft 470 kts 262°
2026-04-26 13:51 -1.50682 34.88324 31547 ft 470 kts 264°
2026-04-26 13:52 -1.50997 34.85071 31828 ft 470 kts 265°
2026-04-26 13:52 -1.51284 34.81821 31939 ft 469 kts 265°
2026-04-26 13:52 -1.51571 34.78582 31977 ft 467 kts 265°
2026-04-26 13:53 -1.52184 34.72069 32007 ft 473 kts 265°
2026-04-26 13:53 -1.52830 34.65524 32005 ft 478 kts 265°
2026-04-26 13:54 -1.53487 34.58887 32010 ft 481 kts 265°
2026-04-26 13:54 -1.54150 34.52197 31990 ft 485 kts 265°
2026-04-26 13:55 -1.55041 34.43238 31989 ft 485 kts 265°
2026-04-26 13:56 -1.56145 34.32072 31986 ft 484 kts 265°
2026-04-26 13:56 -1.56806 34.25408 31992 ft 483 kts 264°
2026-04-26 13:57 -1.57493 34.18759 31981 ft 479 kts 264°
2026-04-26 13:57 -1.58050 34.13295 31987 ft 476 kts 265°
2026-04-26 13:58 -1.58711 34.06717 32015 ft 473 kts 265°
2026-04-26 13:58 -1.59373 34.00173 32038 ft 472 kts 265°
2026-04-26 13:59 -1.60018 33.93668 32058 ft 473 kts 265°
2026-04-26 13:59 -1.60659 33.87111 32067 ft 474 kts 265°
2026-04-26 14:00 -1.61927 33.73911 32009 ft 478 kts 265°
2026-04-26 14:01 -1.62576 33.67309 32007 ft 480 kts 265°
2026-04-26 14:01 -1.63225 33.60654 32003 ft 481 kts 265°
2026-04-26 14:02 -1.63876 33.53981 32003 ft 482 kts 265°
2026-04-26 14:02 -1.64519 33.47384 31995 ft 478 kts 265°
2026-04-26 14:03 -1.65160 33.40793 32000 ft 475 kts 265°
2026-04-26 14:03 -1.65796 33.34227 32005 ft 473 kts 265°
2026-04-26 14:04 -1.66429 33.27677 32016 ft 473 kts 265°
2026-04-26 14:04 -1.67058 33.21168 32019 ft 473 kts 265°
2026-04-26 14:05 -1.67694 33.14593 32019 ft 475 kts 265°
2026-04-26 14:05 -1.68331 33.08002 32019 ft 477 kts 265°
2026-04-26 14:06 -1.68970 33.01385 32022 ft 479 kts 265°
2026-04-26 14:06 -1.69608 32.94782 32020 ft 480 kts 265°
2026-04-26 14:07 -1.70251 32.88120 32011 ft 481 kts 265°
2026-04-26 14:07 -1.70891 32.81477 32003 ft 482 kts 265°
2026-04-26 14:08 -1.71535 32.74792 32001 ft 482 kts 265°
2026-04-26 14:08 -1.72177 32.68116 31992 ft 482 kts 265°
2026-04-26 14:09 -1.72826 32.61431 31976 ft 482 kts 265°
2026-04-26 14:09 -1.73493 32.54797 31978 ft 481 kts 265°
2026-04-26 14:10 -1.74166 32.48126 31967 ft 481 kts 265°
2026-04-26 14:10 -1.74831 32.41510 31967 ft 480 kts 265°
2026-04-26 14:11 -1.75828 32.31539 31955 ft 480 kts 265°
2026-04-26 14:11 -1.76492 32.24889 31952 ft 480 kts 265°
2026-04-26 14:12 -1.77151 32.18284 31962 ft 480 kts 265°
2026-04-26 14:12 -1.77814 32.11650 31962 ft 480 kts 265°
2026-04-26 14:13 -1.78474 32.05036 31952 ft 466 kts 265°
2026-04-26 14:13 -1.78686 32.02923 31955 ft 456 kts 265°
2026-04-26 14:13 -1.79100 31.98775 31963 ft 444 kts 265°
2026-04-26 14:14 -1.79302 31.96748 31961 ft 439 kts 265°
2026-04-26 14:14 -1.79601 31.93756 31960 ft 425 kts 265°
2026-04-26 14:14 -1.79891 31.90849 31967 ft 412 kts 265°
2026-04-26 14:14 -1.80171 31.88040 31960 ft 399 kts 265°
2026-04-26 14:15 -1.80440 31.85338 31989 ft 393 kts 265°
2026-04-26 14:15 -1.80987 31.79823 32018 ft 404 kts 265°
2026-04-26 14:16 -1.81551 31.74140 32025 ft 414 kts 265°
2026-04-26 14:16 -1.82122 31.68412 32005 ft 417 kts 265°
2026-04-26 14:17 -1.82694 31.62679 31994 ft 408 kts 265°
2026-04-26 14:17 -1.83251 31.57088 32015 ft 407 kts 265°
2026-04-26 14:18 -1.83813 31.51431 32035 ft 410 kts 265°
2026-04-26 14:18 -1.84377 31.45759 31925 ft 403 kts 265°
2026-04-26 14:18 -1.84655 31.42968 31151 ft 407 kts 265°
2026-04-26 14:19 -1.84939 31.40114 30124 ft 418 kts 265°
2026-04-26 14:19 -1.85228 31.37199 28545 ft 437 kts 265°
2026-04-26 14:19 -1.85534 31.34121 27097 ft 451 kts 264°
2026-04-26 14:19 -1.85847 31.30976 26096 ft 453 kts 264°
2026-04-26 14:20 -1.86164 31.27861 25425 ft 447 kts 263°
2026-04-26 14:20 -1.86570 31.24812 24649 ft 442 kts 261°
2026-04-26 14:20 -1.87050 31.21743 23388 ft 450 kts 260°
2026-04-26 14:20 -1.87570 31.18626 22043 ft 456 kts 259°
2026-04-26 14:21 -1.88098 31.15492 21080 ft 455 kts 259°
2026-04-26 14:21 -1.88612 31.12391 20394 ft 448 kts 259°
2026-04-26 14:21 -1.89104 31.09382 19769 ft 439 kts 260°
2026-04-26 14:21 -1.89587 31.06382 19075 ft 434 kts 260°
2026-04-26 14:22 -1.90062 31.03408 18345 ft 430 kts 259°
2026-04-26 14:22 -1.90527 31.00481 17541 ft 425 kts 260°
2026-04-26 14:22 -1.90990 30.97568 16729 ft 421 kts 260°
2026-04-26 14:22 -1.91441 30.94725 16187 ft 413 kts 260°
2026-04-26 14:23 -1.91888 30.91911 15813 ft 408 kts 260°
2026-04-26 14:23 -1.92333 30.89106 15417 ft 407 kts 260°
2026-04-26 14:23 -1.92779 30.86304 15012 ft 408 kts 260°
2026-04-26 14:23 -1.93225 30.83497 14597 ft 408 kts 260°
2026-04-26 14:24 -1.93669 30.80699 14159 ft 407 kts 260°
2026-04-26 14:24 -1.94107 30.77945 13757 ft 405 kts 261°
2026-04-26 14:24 -1.94548 30.75167 13319 ft 403 kts 260°
2026-04-26 14:24 -1.94986 30.72407 12910 ft 400 kts 260°
2026-04-26 14:25 -1.95425 30.69669 12506 ft 396 kts 260°
2026-04-26 14:25 -1.95855 30.66986 12107 ft 393 kts 259°
2026-04-26 14:25 -1.96286 30.64289 11710 ft 389 kts 260°
2026-04-26 14:25 -1.96709 30.61624 11340 ft 387 kts 260°
2026-04-26 14:26 -1.97128 30.58974 10947 ft 384 kts 259°
2026-04-26 14:26 -1.97545 30.56338 10529 ft 382 kts 260°
2026-04-26 14:26 -1.97957 30.53727 10290 ft 375 kts 259°
2026-04-26 14:26 -1.98356 30.51202 10114 ft 368 kts 259°
2026-04-26 14:27 -1.98750 30.48707 9923 ft 354 kts 259°
2026-04-26 14:27 -1.99120 30.46355 9925 ft 330 kts 259°
2026-04-26 14:27 -1.99465 30.44159 9895 ft 310 kts 259°
2026-04-26 14:27 -1.99792 30.42088 9815 ft 293 kts 259°
2026-04-26 14:28 -2.00102 30.40129 9714 ft 278 kts 259°
2026-04-26 14:28 -2.00397 30.38273 9579 ft 262 kts 259°
2026-04-26 14:28 -2.00667 30.36511 9209 ft 255 kts 263°
2026-04-26 14:28 -2.00551 30.34777 8715 ft 247 kts 280°
2026-04-26 14:29 -2.00200 30.33140 8299 ft 233 kts 278°
2026-04-26 14:29 -1.99936 30.31606 8009 ft 216 kts 277°
2026-04-26 14:29 -1.99693 30.30173 7743 ft 201 kts 277°
2026-04-26 14:29 -1.99461 30.28834 7504 ft 195 kts 277°
2026-04-26 14:30 -1.99232 30.27520 7265 ft 188 kts 277°
2026-04-26 14:30 -1.99006 30.26227 7028 ft 190 kts 277°
2026-04-26 14:30 -1.98775 30.24928 6807 ft 190 kts 279°
2026-04-26 14:30 -1.98542 30.23628 6562 ft 192 kts 277°
2026-04-26 14:31 -1.98322 30.22319 6296 ft 190 kts 278°
2026-04-26 14:31 -1.98097 30.21028 6050 ft 185 kts 279°
2026-04-26 14:31 -1.97876 30.19759 5756 ft 186 kts 279°
2026-04-26 14:31 -1.97662 30.18506 5541 ft 180 kts 279°
2026-04-26 14:32 -1.97451 30.17303 5292 ft 175 kts 280°
2026-04-26 14:32 -1.97239 30.16122 5035 ft 169 kts 280°
2026-04-26 14:32 -1.97043 30.14969 4888 ft 166 kts 278°
2026-04-26 14:32 -1.96866 30.13939 4886 ft 121 kts 279°
2026-04-26 14:33 -1.96774 30.13422 4884 ft 34 kts 281°
2026-04-26 14:33 -1.96718 30.13355 4887 ft 10 kts 359°
2026-04-26 14:33 -1.96650 30.13365 4888 ft 10 kts
2026-04-26 14:33 -1.96603 30.13403 4890 ft 9 kts 85°
2026-04-26 14:34 -1.96590 30.13465 4884 ft 9 kts 59°
2026-04-26 14:34 -1.96549 30.13512 4884 ft 9 kts 45°
2026-04-26 14:34 -1.96514 30.13562 4890 ft 9 kts 66°
2026-04-26 14:34 -1.96498 30.13602 4886 ft 4 kts 69°
2026-04-26 14:35 -1.96493 30.13616 4889 ft 0 kts 70°